{"data":{"norad_id":55459,"intl_designator":"2023-015L","name":"STARLINK-5669","alt_names":[],"object_type":"PAYLOAD","status":"ACTIVE","operator":null,"country":"US","launch_date":"2023-02-02","launch_site_code":"AFETR","launch_vehicle":null,"mission":null,"orbit_class":"UNKNOWN","rcs_meters":null,"size_class":null,"mass_kg":null,"dimensions":null,"purposes":["comms"],"wikipedia_slug":null,"has_3d_model":false,"image_url":null,"decayed_at":null,"tle_current":{"epoch":"2026-09-20T14:54:53.886528Z","epoch_age_seconds":89673,"freshness":"FRESH","line1":"1 55459U 23015L   26263.62145702 -.00000425  00000+0 -59093-5 0  9998","line2":"2 55459  43.0036 307.9131 0001462 274.4091  85.6593 15.27577001200531","mean_motion":15.27577001,"eccentricity":0.0001462,"inclination_deg":43.0036,"raan_deg":307.9131,"arg_perigee_deg":274.4091,"mean_anomaly_deg":85.6593,"bstar":-5.9093e-6,"rev_number":20053,"period_min":94.266933781887,"perigee_km":482.0549694191,"apogee_km":484.06118285936,"semimajor_km":6861.1950761392,"source":"CELESTRAK","updated_at":"2026-09-21T09:00:33.228139Z"}}}